◎130P/McNaught-Hughesの軌道です



 130P/McNaught-Hughes 

Epoch 1998 Mar. 8.0 TT = JDT 2450880.5  

T 1998 Feb. 23.78388 TT                                 Nakano

q   2.1162925            (2000.0)            P               Q

n   0.14726072     Peri.  224.36828     +0.69324978     +0.70939736

a   3.5514968      Node    89.97237     -0.62081843     +0.67739973

e   0.4041125      Incl.    7.30335     -0.36604538     +0.19464069

P   6.69

From 63 observations 1991-1998, mean residual 0".59.

Residuals in seconds of arc 

1991/                     920115 413  1.5+  1.2+    970528 691  0.2-  0.2-  

910914 675  0.4-  0.0     920115 413 (4.5+  0.1-)   970528 691  0.1-  0.5-  

910914 675  0.6-  0.2-    1993/                     970531 360  1.2+  0.0   

910930 413  0.3-  0.0     930101 691  0.3-  0.3-    970531 360  1.1+  0.4-  

910930 413  0.5+  0.4-    930101 691  0.3+  0.5-    970603 691  0.2-  0.3-  

911001 413  0.3-  0.3+    930101 691  0.4+  0.5-    970603 691  0.0   0.5-  

911002 413  0.7-  0.7-    930122 691  0.4-  0.3-    970603 691  0.1-  0.3-  

911002 413 (2.4+  0.3+)   930122 691  0.5-  0.9-    1998/                   

911005 413  0.3-  0.1+    930122 691  0.2+  0.7-    980728 696  0.1-  0.2+  

911009 801  0.1+  0.7-    1997/                     980728 696  0.3+  0.2+  

911009 801  0.5-  0.2-    970416 691  0.0   0.5+    980728 696  0.0   0.2+  

911009 413  0.5-  0.0     970416 691  0.3-  0.2+    980804 360  1.1-  0.0   

911011 675 (3.1+  0.5-)   970416 691  0.0   0.1-    980804 360  0.7-  0.1+  

911011 675 (0.1+  3.0+)   970429 360  0.2+  0.2+    980804 360  0.2-  0.4+  

911012 413  0.6+  0.4+    970429 360  0.3-  0.2+    980831 691  0.2-  0.1-  

911013 675  0.4+  1.6-    970429 360  0.7+  0.7+    980831 691  0.2-  0.0   

911013 675  1.3+  0.7+    970503 691  0.9-  0.0     980831 691  0.6-  0.0   

911102 413  1.2-  0.6+    970503 691  1.1-  0.0     980902 402  0.3+  0.3-  

911108 413  0.3-  0.0     970503 691  1.0-  0.1-    980902 402  0.1-  0.4-  

911108 413  0.4-  0.2+    970506 402  0.6+  1.6-    980902 867  0.3+  0.5-  

911126 413 (2.2+  0.1-)   970506 402  1.0+  1.0-    980902 402  0.8+  0.7+  

911126 413  1.4+  0.4-    970509 402 (2.2+  1.2+)   980902 867  0.5+  0.1-  

911127 413  1.3+  0.1+    970509 402  1.7-  0.1-    980902 360  0.2+  0.3-  

911127 413  1.3+  0.2+    970509 402 (1.9+  2.7-)   980902 867  0.5+  0.2-  

1992/                     970528 691  0.1-  0.3-    980902 360  0.1+  0.4-  

NAKANO

write mail from CFAD0::NAKANO on 1998-09-08 00:00:04(JST).

 



戻ります。